Total_Precipitation_Accumulation
0.05 0.09 0.15 0.19 0.17 0.13 0.09 0.07 0.09 0.16 0.32 0.41 0.52 0.57 0.59 0.61 0.57 0.50 0.46 0.42 0.35 0.33 0.34 0.43 0.56 0.59 0.67 0.81 0.99 1.02 1.17 1.33 1.39 1.49 1.54 1.56 1.64 1.65 1.62 1.63 1.68 1.84 1.91 1.91
0.04 0.07 0.11 0.13 0.16 0.11 0.09 0.07 0.07 0.16 0.35 0.43 0.45 0.51 0.59 0.58 0.58 0.55 0.47 0.42 0.44 0.47 0.46 0.49 0.55 0.63 0.70 0.75 0.92 1.11 1.35 1.63 1.67 1.76 1.81 1.89 2.04 2.12 2.04 2.00 2.07 2.11 2.07 2.01
0.07 0.10 0.11 0.15 0.15 0.12 0.14 0.13 0.14 0.22 0.33 0.38 0.44 0.53 0.73 0.75 0.69 0.68 0.62 0.58 0.61 0.68 0.65 0.64 0.64 0.69 0.77 0.84 0.98 1.20 1.45 1.70 1.90 2.02 2.09 2.18 2.28 2.29 2.23 2.30 2.43 2.43 2.31 2.14
0.12 0.16 0.22 0.19 0.19 0.17 0.19 0.22 0.27 0.35 0.37 0.48 0.67 0.79 0.93 0.98 0.86 0.82 0.73 0.67 0.69 0.79 0.85 0.81 0.80 0.89 1.01 1.14 1.30 1.50 1.71 1.89 2.04 2.09 2.12 2.18 2.25 2.19 2.20 2.31 2.36 2.37 2.32 2.19
0.23 0.25 0.24 0.26 0.30 0.30 0.34 0.47 0.48 0.56 0.62 0.71 0.79 0.80 0.87 0.82 0.71 0.67 0.64 0.72 0.77 0.85 0.94 0.98 0.99 1.09 1.19 1.26 1.38 1.58 1.76 1.85 1.87 1.98 2.08 2.14 2.18 2.22 2.22 2.19 2.08 2.00 1.97 1.98
0.36 0.38 0.40 0.43 0.46 0.42 0.49 0.90 0.92 0.88 0.84 0.80 0.83 1.03 1.00 0.79 0.71 0.70 0.67 0.70 0.82 0.83 0.88 0.95 1.04 1.06 1.14 1.24 1.42 1.65 1.82 1.85 1.84 1.94 2.02 2.09 2.14 2.18 2.11 2.02 1.96 1.91 1.82 1.84
0.49 0.53 0.49 0.48 0.43 0.42 0.74 1.06 1.03 1.02 1.05 0.97 1.03 1.09 1.03 0.89 0.87 0.80 0.73 0.70 0.75 0.86 0.93 0.96 1.04 1.08 1.14 1.26 1.40 1.52 1.60 1.67 1.78 1.93 2.03 2.06 2.09 2.06 1.99 1.90 1.91 1.92 1.84 1.75
0.66 0.81 0.85 0.62 0.52 0.73 0.98 0.87 1.02 1.14 1.14 1.11 1.04 0.95 0.96 0.94 0.94 0.88 0.80 0.83 0.86 0.93 1.09 1.15 1.18 1.18 1.24 1.25 1.31 1.41 1.41 1.47 1.51 1.60 1.74 1.79 1.85 1.79 1.79 1.74 1.69 1.66 1.62 1.54
0.91 1.03 0.86 0.73 0.75 0.82 0.87 0.90 0.96 1.09 1.15 1.11 1.12 1.07 0.93 0.88 0.86 0.97 1.04 1.05 1.02 1.01 1.08 1.13 1.21 1.28 1.33 1.29 1.25 1.26 1.28 1.35 1.41 1.42 1.55 1.65 1.67 1.61 1.59 1.55 1.49 1.45 1.41 1.36
1.12 1.19 1.05 0.95 0.91 0.85 0.82 0.86 0.91 1.06 1.17 1.23 1.19 1.04 0.95 0.87 0.80 0.78 0.83 0.87 0.95 0.97 1.01 1.14 1.11 1.14 1.21 1.24 1.23 1.28 1.33 1.33 1.36 1.40 1.48 1.67 1.72 1.58 1.47 1.42 1.37 1.35 1.30 1.30
1.26 1.31 1.14 1.04 0.97 1.02 0.99 0.93 0.92 1.00 1.08 1.09 1.02 0.99 0.95 0.85 0.77 0.74 0.70 0.68 0.72 0.77 0.80 0.86 0.87 0.89 0.93 0.97 1.04 1.10 1.09 1.05 1.03 1.10 1.24 1.43 1.53 1.48 1.33 1.29 1.34 1.35 1.31 1.27
1.36 1.23 1.26 1.28 1.16 1.13 1.20 1.21 1.15 1.12 1.11 1.03 0.92 0.87 0.81 0.69 0.63 0.61 0.59 0.57 0.61 0.63 0.64 0.67 0.72 0.80 0.89 1.03 1.14 1.12 1.03 0.97 0.96 0.97 1.07 1.26 1.46 1.53 1.39 1.18 1.20 1.17 1.11 1.07
1.21 1.15 1.25 1.31 1.32 1.37 1.47 1.37 1.29 1.24 1.13 0.98 0.95 0.86 0.75 0.68 0.61 0.57 0.53 0.53 0.57 0.60 0.65 0.71 0.74 0.71 0.76 0.89 1.02 1.11 1.08 1.03 1.00 0.98 1.01 1.10 1.33 1.56 1.60 1.36 1.14 1.04 0.91 0.81
1.20 1.21 1.37 1.43 1.48 1.52 1.49 1.44 1.36 1.36 1.26 1.10 0.98 0.86 0.78 0.79 0.72 0.64 0.62 0.65 0.71 0.73 0.74 0.77 0.77 0.75 0.73 0.81 0.90 0.99 1.04 1.01 0.91 0.88 0.93 1.02 1.24 1.51 1.68 1.61 1.42 1.16 0.90 0.74
1.30 1.31 1.33 1.27 1.35 1.39 1.42 1.43 1.34 1.37 1.31 1.17 0.99 0.84 0.74 0.73 0.73 0.71 0.70 0.77 0.90 0.90 0.84 0.81 0.78 0.76 0.74 0.77 0.83 0.89 0.94 0.94 0.89 0.87 0.91 0.96 1.16 1.42 1.61 1.66 1.57 1.42 1.09 0.79
1.39 1.35 1.22 1.16 1.24 1.29 1.29 1.24 1.17 1.23 1.21 1.14 1.05 0.94 0.84 0.78 0.77 0.75 0.78 0.89 1.06 1.07 0.95 0.88 0.86 0.86 0.86 0.85 0.81 0.80 0.83 0.85 0.75 0.74 0.77 0.80 0.91 1.11 1.36 1.50 1.44 1.36 1.15 0.78
1.38 1.45 1.37 1.27 1.28 1.32 1.29 1.18 1.10 1.11 1.11 1.12 1.14 1.07 1.04 1.00 0.96 0.97 1.03 1.09 1.13 1.09 0.97 0.88 0.83 0.80 0.80 0.85 0.87 0.81 0.76 0.74 0.65 0.57 0.62 0.68 0.74 0.92 1.16 1.33 1.28 1.18 1.04 0.72
1.23 1.19 1.20 1.22 1.27 1.30 1.22 1.06 1.00 0.99 0.99 1.07 1.14 1.13 1.18 1.17 1.15 1.20 1.23 1.22 1.12 0.96 0.83 0.78 0.71 0.68 0.67 0.65 0.64 0.62 0.61 0.63 0.59 0.56 0.61 0.63 0.65 0.81 1.04 1.20 1.15 1.09 0.99 0.76
1.05 1.00 0.98 1.01 1.08 1.11 1.05 0.98 0.89 0.86 0.83 0.88 0.93 0.98 1.03 1.04 1.07 1.14 1.14 1.23 1.27 1.13 0.88 0.68 0.67 0.59 0.58 0.54 0.52 0.49 0.48 0.48 0.46 0.47 0.50 0.52 0.62 0.79 0.95 1.03 1.00 0.94 0.84 0.71
1.01 0.98 0.87 0.87 0.90 0.86 0.82 0.79 0.74 0.73 0.73 0.74 0.73 0.73 0.80 0.86 0.94 1.08 1.15 1.27 1.31 1.19 0.98 0.80 0.64 0.53 0.47 0.40 0.38 0.38 0.41 0.44 0.46 0.49 0.52 0.59 0.67 0.80 0.86 0.85 0.83 0.80 0.77 0.76
0.91 0.90 0.72 0.67 0.69 0.67 0.65 0.60 0.56 0.57 0.58 0.56 0.55 0.56 0.62 0.68 0.77 0.96 1.27 1.47 1.29 1.04 0.87 0.78 0.60 0.47 0.40 0.38 0.34 0.33 0.37 0.41 0.47 0.54 0.57 0.62 0.70 0.77 0.78 0.76 0.72 0.70 0.71 0.74
0.82 0.75 0.68 0.62 0.57 0.56 0.50 0.51 0.51 0.48 0.45 0.41 0.42 0.49 0.55 0.64 0.75 0.85 1.02 1.29 1.30 1.16 0.86 0.65 0.51 0.42 0.38 0.37 0.35 0.37 0.39 0.40 0.45 0.50 0.52 0.57 0.67 0.75 0.72 0.67 0.62 0.60 0.63 0.69
0.81 0.69 0.66 0.62 0.56 0.51 0.44 0.42 0.45 0.46 0.40 0.36 0.38 0.44 0.50 0.60 0.72 0.97 1.10 1.00 1.04 1.13 0.89 0.67 0.58 0.49 0.37 0.31 0.35 0.38 0.39 0.43 0.51 0.53 0.51 0.53 0.55 0.61 0.63 0.59 0.59 0.59 0.64 0.64
0.80 0.73 0.65 0.55 0.51 0.48 0.47 0.41 0.39 0.43 0.40 0.35 0.31 0.33 0.40 0.53 0.61 0.72 0.88 0.93 0.94 0.99 0.80 0.64 0.54 0.43 0.36 0.33 0.38 0.43 0.50 0.58 0.59 0.53 0.47 0.47 0.48 0.51 0.55 0.54 0.52 0.56 0.61 0.63
0.76 0.72 0.63 0.53 0.51 0.49 0.45 0.39 0.38 0.40 0.36 0.34 0.32 0.32 0.33 0.41 0.56 0.69 0.76 0.80 0.91 0.95 0.82 0.67 0.54 0.46 0.41 0.43 0.47 0.56 0.62 0.55 0.49 0.44 0.41 0.42 0.46 0.51 0.52 0.54 0.58 0.57 0.57 0.59
0.71 0.69 0.63 0.54 0.50 0.49 0.45 0.43 0.41 0.37 0.34 0.36 0.35 0.32 0.33 0.38 0.46 0.57 0.67 0.71 0.76 0.86 0.81 0.64 0.47 0.44 0.44 0.49 0.54 0.58 0.57 0.51 0.46 0.44 0.43 0.44 0.48 0.53 0.52 0.54 0.58 0.56 0.57 0.59
0.66 0.62 0.61 0.59 0.57 0.53 0.49 0.49 0.47 0.43 0.38 0.40 0.45 0.45 0.46 0.48 0.52 0.57 0.62 0.67 0.68 0.66 0.61 0.51 0.41 0.40 0.39 0.40 0.45 0.48 0.48 0.48 0.47 0.47 0.48 0.49 0.52 0.54 0.52 0.50 0.49 0.48 0.47 0.47